FREGAT DEB, 45994

Orbit data source: Space-Track

FREGAT DEB, 45994 is space debris in LEO originally from a launch on Mon, 18 Jul 2011 UTC launched from the Tyuratam Missile And Space Complex (TTMTR). Debris objects in space refer to the collection of defunct objects orbiting the Earth. Examples of debris include non-operational satellites, rocket bodies, and fragments generated from explosions, collisions, or faulty payload assembly.

Loading next visibility...
Identifier
45994, 2011-037GV
Orbit
LEO
Country
Flag of CISCIS
Related business
Manufacturer
Lavochkin
Mission
Spacecraft
Bus & Motor
Unknown
Mass
Unknown
Launch date (UTC)
2011-07-18 (15 years ago)
Launch vehicle
Unknown
Launch site
Tyuratam Missile And Space Complex (TTMTR)
Object type
Payload
Rocket body
Debris
Shape & HBR
Unknown shape, 0.1 m
Radar Cross Section
Small (<0.1 m²)

Expand to show TLE details & history
Last TLE update: 1 day ago

TLE from 1 day ago
0 FREGAT DEB
1 45994U 11037GV  26254.64131260  .00000140  00000-0  42683-3 0  9996
2 45994  51.5104  71.7743 1698545  92.5750 286.9671 10.95461065244662
Epoch: 2026-09-11T15:23Z
TLE epoch observation values (Epoch: 2026-09-11T15:23:29.408Z)
Latitude
-0°
Longitude
-149.75999°
Altitude
2,001.159 km
Speed
6.973 km/s
True Right ascension
04h 47m 05s
True Declination
0° 00' 00"
Sunlit
Object was in daylight at epoch
Visualization orbit readout
Latitude
Unknown
Longitude
Unknown
Altitude
Unknown
Speed
Unknown
Apparent Right ascension
Unknown
Apparent Declination
Unknown
Sunlit
N/A
Visualization observer readout
Local Sidereal Time
11:09:47
Azimuth
Unknown
Elevation
Unknown
Doppler factor
Unknown
Orbital elements
Apogee altitude
3,640.871 km
Perigee altitude
731.495 km
Semi-major axis
8,564.32 km
Eccentricity
0.16985
Inclination
51.5104°
RAAN
71.7743°
Arg. of periapsis
92.575°
True anomaly
267.50789°
Mean anomaly
286.9671°
Eccentric anomaly
277.31435°
Mean motion
2.73844 °/min
Orbital period
131.46 mins
BSTAR
0.00042683
Loading maneuver chart data...
Computing Atmospheric mass density...
Loading historical data...
Loading historical data...
Loading historical data...
Loading historical data...
Loading historical data...
Loading historical data...
Loading historical data...

Documentation

Showing up to 5 results
|